Location: Unspecified
(41.1850°N, 73.2650°W)
Time: 04:55:01
(UTC+00:00)

USA 81 - Pass Details

Date: 14 December 2025
Orbit: 783 x 785 km, 85.0° (Epoch: 13 January)

Event Time Altitude Azimuth Distance (km) Brightness Sun altitude
Rises 22:36:14 0° 358° (N) 3,283 7.1 -13.0°
Reaches altitude 10° 22:38:38 10° 2° (N) 2,350 6.3 -13.4°
Maximum altitude 22:43:52 62° 83° (E) 879 4.0 -14.3°
Drops below altitude 10° 22:49:02 10° 164° (SSE) 2,332 6.5 -15.3°
Sets 22:51:25 0° 168° (SSE) 3,256 7.3 -15.7°
